NOAA NWS Hourly Roundups by Site

Regional Weather Roundup for Seattle, WA

To Select Another Site Choose from List

Select Site:  

000
ASUS46 KSEW 171420
RWRWA

WASHINGTON REGIONAL WEATHER ROUNDUP
NATIONAL WEATHER SERVICE SEATTLE WA
700 AM PDT FRI SEP 17 2021

NOTE:"FAIR" INDICATES FEW OR NO CLOUDS BELOW 12,000 FEET WITH NO
SIGNIFICANT WEATHER AND/OR OBSTRUCTIONS TO VISIBILITY.

WAZ507-509-555>559-171500-
SEATTLE, TACOMA, EVERETT, AND VICINITY

CITY           SKY/WX    TMP DP  RH WIND       PRES   REMARKS
EVERETT        LGT RAIN  53  49  86 SE10      29.82F
BOEING FIELD   CLOUDY    55  50  83 SE7       29.83S
RENTON         CLOUDY    55  50  83 SE3       29.83S
SEATAC AIRPORT LGT RAIN  54  50  86 S5        29.83F
JBLM-MCCHORD   CLOUDY    52  49  90 S3        29.83S
PUYALLUP       CLOUDY    54  52  94 CALM      29.83F
BREMERTON      LGT RAIN  53  48  83 SW9       29.83F
JBLM-FT LEWIS  CLOUDY    52  48  87 CALM      29.82S
TACOMA NARROWS CLOUDY    51  50  96 CALM      29.84S
$$

WAZ001-503-506-510-514-515-171500-
NORTH INTERIOR

CITY           SKY/WX    TMP DP  RH WIND       PRES   REMARKS
BELLINGHAM     LGT RAIN  55  50  83 SE8       29.78F
FRIDAY HARBOR  LGT RAIN  51  49  92 NE6       29.77F
EASTSOUND      LGT RAIN  54  50  87 SE9       29.74F
PORT ANGELES   LGT RAIN  50  48  93 E3        29.76F FOG
EDIZ HOOK      LGT RAIN  49  49  99 CALM      29.76F
PORT TOWNSEND  CLOUDY    52  48  87 CALM      29.73F
NAS WHIDBEY    LGT RAIN  56  49  77 SE17G28   29.80F
ARLINGTON      LGT RAIN  53  48  83 E9        29.83F
BURLINGTON     CLOUDY    54  48  82 SE6       29.80S
$$

WAZ020-022-039-040-504-511-512-171500-
SOUTHWEST INTERIOR

CITY           SKY/WX    TMP DP  RH WIND       PRES   REMARKS
SHELTON        LGT RAIN  51  50  96 CALM      29.81F
OLYMPIA        CLOUDY    51  49  92 CALM      29.83F
CHEHALIS       NOT AVBL
KELSO          CLOUDY    58  42  55 SE13      29.85F
VANCOUVER      CLOUDY    59  37  44 E8        29.87S
SCAPPOOSE, OR  CLOUDY    54  39  57 CALM      29.86S
PORTLAND, OR   MOCLDY    60  32  34 E9        29.88R
$$

WAZ021-516-517-171500-
WASHINGTON COAST

CITY           SKY/WX    TMP DP  RH WIND       PRES   REMARKS
FORKS          RAIN      50  48  93 VRB6G20   29.72F
HOQUIAM        LGT RAIN  54  50  86 E9        29.81F
ASTORIA, OR    LGT RAIN  55  49  80 E5        29.82F
$$

WAZ019-023-024-040-567>569-171500-
CASCADE MOUNTAINS AND COLUMBIA GORGE

CITY           SKY/WX    TMP DP  RH WIND       PRES   REMARKS
STAMPEDE PASS  CLOUDY    46  30  53 VRB3      29.88F
TROUTDALE, OR  MOCLDY    55  34  45 CALM      29.88S
HOOD RIVER, OR CLOUDY    43  34  70 CALM      29.92S
THE DALLES, OR PTCLDY    46  32  58 E5        29.92S
$$

WAZ026-027-041>044-520-521-171500-
EAST SLOPES

CITY           SKY/WX    TMP DP  RH WIND       PRES   REMARKS
OMAK           MOCLDY    52  31  44 S9        29.86F
WENATCHEE      MOCLDY    51  35  54 CALM      29.86F
ELLENSBURG     MOCLDY    47  38  71 MISG      29.88F
YAKIMA         MOCLDY    48  42  80 CALM      29.89F
SUNNYSIDE ARPT PTSUNNY   48  44  88 CALM      29.89S
YAKIMA TC      PTSUNNY   48  33  55 CALM      29.87S
$$

WAZ028-034-035-171500-
COLUMBIA BASIN

CITY           SKY/WX    TMP DP  RH WIND       PRES   REMARKS
EPHRATA        MOCLDY    50  32  50 N5        29.87F
MOSES LAKE     MOCLDY    49  29  46 NE6       29.89F
PASCO          MOCLDY    45  37  73 E3        29.90F
RICHLAND ARPT  PTSUNNY   49  36  60 E5        29.90S
HERMISTON, OR  MOCLDY    43  32  65 CALM      29.91S
$$

WAZ036>038-171500-
NORTHEAST WASHINGTON

CITY           SKY/WX    TMP DP  RH WIND       PRES   REMARKS
SPOKANE GEIGER CLOUDY    46  29  51 E3        29.91F
SPOKANE FELTS  MOCLDY    48  33  56 CALM      29.92S
FAIRCHILD AFB  PTCLDY    44  30  58 NE5       29.91S
COEURDALENE,ID MOCLDY    46  32  58 E9        29.94F
DEER PARK      MOCLDY    46  26  45 NE6       29.92F
$$

WAZ029>033-171500-
SOUTHEAST WASHINGTON

CITY           SKY/WX    TMP DP  RH WIND       PRES   REMARKS
PULLMAN        MOCLDY    49  23  36 E13       29.94S
LEWISTON, ID   MOCLDY    51  24  34 E10       29.94R
WALLA WALLA    PTCLDY    47  28  47 E7        29.90S
PENDLETON, OR  PTCLDY    42  25  50 SE6       29.91S
$$


 

View Past Reports for Seattle, WA.

Products Courtesy of NOAA-NWS
NWS Information Parsing Script by Ken True at Saratoga Weather - Script by SE Lincoln Weather.